Home > Weather > Tuscaloosa > Past weeks

Flag for USA Past Weather in Tuscaloosa, Alabama, USA — Yesterday and Last 2 Weeks

Now
74 °F

Clear.


Feels Like: 70 °F
Forecast: 73 / 92 °F
Wind: No wind

Location: Tuscaloosa Municipal Airport

Current Time: Aug 27, 2016 at 3:35:52 AM

Latest Report: Aug 27, 2016 at 2:53 AM


Visibility: 9 mi

Pressure: 30.00 "Hg

Humidity: 100%

Dew Point: 74 °F

Location of TuscaloosaLocation

Past Weather in Tuscaloosa — Graph

°F

Tuscaloosa Temperature Yesterday

Maximum temperature yesterday: 94 °F (at 1:53 PM)
Minimum temperature yesterday: 74 °F (at 5:53 AM)
Average temperature yesterday: 83 °F

High & Low Weather Summary for the Past Weeks

 TemperatureHumidityPressure
High95 °F (Aug 25, 3:53 PM)100% (Aug 12, 7:03 AM)30.24 "Hg (Aug 12, 7:03 AM)
Low71 °F (Aug 16, 3:53 AM)44% (Aug 26, 3:53 PM)29.86 "Hg (Aug 12, 7:53 PM)
Average80 °F85%30.05 "Hg
* Reported Aug 12 1:53 AM — Aug 27 1:53 AM, Tuscaloosa, Weather by CustomWeather, © 2016

Note: Actual official high and low records may vary slightly from our data, if they occured in-between our weather recording intervals... More about our weather records

Advertising

Tuscaloosa Weather History for the Previous 24 Hours

Scroll right to see more
 ConditionsComfort  
Time TempWeatherWind HumidityBarometerVisibility
1:53 AM
Sat, Aug 27
75 °FClear.No wind96%30.01 "Hg10 mi
12:53 AM76 °FClear.No wind97%30.03 "Hg10 mi
11:53 PM
Fri, Aug 26
77 °FClear.No wind94%30.03 "Hg10 mi
10:53 PM79 °FClear.3 mph88%30.03 "Hg10 mi
9:53 PM79 °FClear.5 mph90%30.03 "Hg10 mi
8:53 PM80 °FClear.6 mph87%30.03 "Hg10 mi
7:53 PM82 °FSunny.8 mph79%30.01 "Hg10 mi
6:53 PM88 °FSunny.3 mph61%29.99 "Hg10 mi
5:53 PM91 °FPassing clouds.6 mph54%29.99 "Hg10 mi
4:53 PM93 °FPassing clouds.8 mph50%29.98 "Hg10 mi
3:53 PM94 °FPassing clouds.7 mph44%29.97 "Hg10 mi
2:53 PM93 °FPassing clouds.12 mph47%29.98 "Hg10 mi
1:53 PM94 °FPassing clouds.8 mph48%30.01 "Hg10 mi
12:53 PM92 °FPassing clouds.9 mph56%30.03 "Hg10 mi
11:53 AM90 °FPassing clouds.No wind59%30.06 "Hg10 mi
10:53 AM89 °FSunny.3 mph65%30.09 "Hg10 mi
9:53 AM87 °FScattered clouds.No wind72%30.09 "Hg10 mi
8:53 AM82 °FPassing clouds.3 mph85%30.09 "Hg10 mi
7:53 AM79 °FSunny.5 mph94%30.09 "Hg9 mi
6:53 AM75 °FFog.No wind100%30.06 "Hg6 mi
5:53 AM74 °FClear.No wind100%30.05 "Hg7 mi
4:53 AM75 °FClear.No wind100%30.03 "Hg7 mi
3:53 AM75 °FClear.No wind100%30.04 "Hg8 mi
Weather by CustomWeather, © 2016

See weather overviewHow to use our weather pages